Falfurrias, TX

3:41 PM CST on December 08, 2019 (GMT -0600)
Falfurrias

Weather History for KBKS - October, 2019

Change the Weather History Date:

Tuesday, October 29, 2019

  Actual Average (KNQI) Record (KNQI)
Temperature  
Mean Temperature 84 °F -  
Max Temperature 94 °F 79 °F 93 °F (2015)
Min Temperature 75 °F 60 °F 37 °F (2017)
Cooling Degree Days 20    
Growing Degree Days 34 (Base 50)    
Moisture  
Dew Point 74 °F    
Average Humidity 78    
Maximum Humidity 93    
Minimum Humidity 44    
Precipitation  
Precipitation 0.00 in - - ()
Sea Level Pressure  
Sea Level Pressure 29.84 in    
Wind  
Wind Speed 5 mph ()    
Max Wind Speed 16 mph    
Max Gust Speed 21 mph    
Visibility 6.6 miles    
Events      
Averages and records for this station are not official NWS values.
T = Trace of Precipitation, MM = Missing Value Source: Averaged Metar Reports

Daily Weather History Graph

Daily Weather History Graph

Search for Another Location

Airport or City:

Astronomy

Oct. 29, 2019 Rise Set
Actual Time 7:40 AM CDT 6:51 PM CDT
Civil Twilight 7:16 AM CDT 7:15 PM CDT
Nautical Twilight 6:49 AM CDT 7:42 PM CDT
Astronomical Twilight 6:21 AM CDT 8:10 PM CDT
Moon 9:10 AM CDT (10/29) 8:24 PM CDT (10/29)
Length of Visible Light 11h 58m
Length of Day
11h 10m
Waxing Crescent, 3% of the Moon is Illuminated
Oct 29
Waxing Crescent
Nov 4
First Quarter
Nov 12
Full
Nov 19
Last Quarter
Nov 26
New

Hourly Weather History & Observations

Time (CDT) Temp. Heat Index Dew Point Humidity Pressure Visibility Wind Dir Wind Speed Gust Speed Precip Events Conditions
12:15 AM 75.7 °F - 71.8 °F 87% 29.90 in 10.0 mi East 3.5 mph - N/A   Overcast
12:35 AM 76.1 °F - 72.1 °F 87% 29.90 in 10.0 mi Calm Calm - N/A   Overcast
12:55 AM 76.1 °F - 72.0 °F 87% 29.90 in 10.0 mi Calm Calm - N/A   Overcast
1:15 AM 76.1 °F - 72.1 °F 87% 29.89 in 10.0 mi Calm Calm - N/A   Overcast
1:35 AM 76.3 °F - 72.5 °F 88% 29.89 in 10.0 mi Calm Calm - N/A   Overcast
1:55 AM 76.5 °F - 73.0 °F 89% 29.89 in 7.0 mi South 6.9 mph - N/A   Overcast
2:15 AM 77.0 °F - 73.6 °F 89% 29.88 in 4.0 mi ESE 3.5 mph - N/A   Overcast
2:35 AM 76.6 °F - 73.6 °F 90% 29.88 in 5.0 mi Calm Calm - N/A   Overcast
2:55 AM 76.6 °F - 73.8 °F 91% 29.88 in 7.0 mi ESE 3.5 mph - N/A   Overcast
3:15 AM 77.0 °F - 74.3 °F 91% 29.87 in 7.0 mi East 3.5 mph - N/A   Overcast
3:35 AM 77.0 °F - 74.3 °F 91% 29.86 in 10.0 mi East 3.5 mph - N/A   Overcast
3:55 AM 77.0 °F - 74.3 °F 91% 29.86 in 10.0 mi Calm Calm - N/A   Overcast
4:15 AM 77.0 °F - 74.3 °F 91% 29.86 in 7.0 mi ENE 3.5 mph - N/A   Overcast
4:35 AM 76.8 °F - 74.3 °F 92% 29.86 in 7.0 mi East 3.5 mph - N/A   Overcast
4:55 AM 77.0 °F - 74.5 °F 92% 29.86 in 7.0 mi ESE 3.5 mph - N/A   Overcast
5:15 AM 77.0 °F - 74.3 °F 91% 29.85 in 5.0 mi Calm Calm - N/A   Overcast
5:35 AM 77.0 °F - 74.5 °F 92% 29.86 in 4.0 mi Calm Calm - N/A   Overcast
5:55 AM 77.2 °F - 74.7 °F 92% 29.86 in 1.2 mi Calm Calm - N/A   Overcast
6:15 AM 77.4 °F - 75.2 °F 93% 29.86 in 1.8 mi Calm Calm - N/A   Overcast
6:35 AM 77.7 °F - 75.4 °F 92% 29.86 in 3.0 mi SSE 4.6 mph - N/A   Overcast
6:55 AM 77.5 °F - 75.2 °F 92% 29.86 in 5.0 mi ESE 3.5 mph - N/A   Overcast
7:15 AM 77.5 °F - 75.2 °F 92% 29.86 in 5.0 mi ESE 4.6 mph - N/A   Overcast
7:35 AM 77.2 °F - 74.8 °F 92% 29.86 in 3.0 mi East 3.5 mph - N/A   Mostly Cloudy
7:55 AM 77.0 °F - 74.7 °F 92% 29.86 in 4.0 mi Calm Calm - N/A   Scattered Clouds
8:15 AM 77.0 °F - 74.5 °F 92% 29.86 in 4.0 mi Calm Calm - N/A   Scattered Clouds
8:35 AM 77.0 °F - 74.7 °F 92% 29.87 in 4.0 mi ESE 3.5 mph - N/A   Mostly Cloudy
8:55 AM 77.5 °F - 75.2 °F 92% 29.88 in 4.0 mi SE 4.6 mph - N/A   Overcast
9:15 AM 77.9 °F - 75.6 °F 92% 29.88 in 2.5 mi SE 5.8 mph - N/A   Overcast
9:35 AM 78.4 °F - 75.9 °F 92% 29.89 in 1.2 mi SSE 5.8 mph - N/A   Overcast
9:55 AM 79.0 °F - 76.3 °F 91% 29.88 in 2.0 mi SE 3.5 mph - N/A   Overcast
10:15 AM 80.6 °F 86.6 °F 75.9 °F 86% 29.89 in 2.5 mi SE 6.9 mph - N/A   Mostly Cloudy
10:35 AM 82.9 °F 90.8 °F 75.9 °F 79% 29.89 in 2.5 mi SE 8.1 mph - N/A   Mostly Cloudy
10:55 AM 84.7 °F 92.8 °F 74.7 °F 72% 29.89 in 5.0 mi ESE 8.1 mph - N/A   Scattered Clouds
11:15 AM 84.9 °F 92.5 °F 74.1 °F 70% 29.89 in 7.0 mi SSE 4.6 mph - N/A   Mostly Cloudy
11:35 AM 85.3 °F 92.6 °F 73.6 °F 68% 29.88 in 3.0 mi SSE 6.9 mph - N/A   Overcast
11:55 AM 86.5 °F 94.6 °F 73.8 °F 66% 29.88 in 3.0 mi East 6.9 mph - N/A   Mostly Cloudy
12:15 PM 88.5 °F 96.8 °F 73.4 °F 61% 29.87 in 3.0 mi ESE 6.9 mph - N/A   Scattered Clouds
12:35 PM 89.4 °F 97.3 °F 73.0 °F 58% 29.86 in 1.8 mi SSE 9.2 mph - N/A   Mostly Cloudy
1:15 PM 88.9 °F 95.6 °F 72.0 °F 57% 29.83 in 2.0 mi SE 5.8 mph - N/A   Overcast
1:35 PM 89.4 °F 96.3 °F 71.8 °F 56% 29.82 in 3.0 mi South 5.8 mph - N/A   Mostly Cloudy
1:55 PM 91.9 °F 99.0 °F 71.2 °F 51% 29.81 in 4.0 mi ESE 5.8 mph - N/A   Mostly Cloudy
2:15 PM 91.2 °F 97.5 °F 71.1 °F 51% 29.79 in 5.0 mi ESE 8.1 mph - N/A   Mostly Cloudy
2:35 PM 91.4 °F 96.3 °F 69.4 °F 48% 29.78 in 4.0 mi SE 11.5 mph - N/A   Mostly Cloudy
2:55 PM 92.3 °F 97.0 °F 69.1 °F 46% 29.77 in 2.0 mi SE 9.2 mph - N/A   Overcast
3:15 PM 92.1 °F 97.2 °F 69.1 °F 47% 29.76 in 4.0 mi SE 9.2 mph - N/A   Scattered Clouds
3:35 PM 94.3 °F 99.8 °F 69.1 °F 44% 29.76 in 4.0 mi SE 9.2 mph - N/A   Scattered Clouds
3:55 PM 93.6 °F 100.7 °F 70.9 °F 48% 29.75 in 3.0 mi East 11.5 mph 16.1 mph N/A   Mostly Cloudy
4:15 PM 92.1 °F 99.4 °F 71.8 °F 51% 29.75 in 10.0 mi ESE 13.8 mph 18.4 mph N/A   Mostly Cloudy
4:35 PM 92.5 °F 100.1 °F 72.0 °F 51% 29.75 in 10.0 mi ESE 11.5 mph - N/A   Scattered Clouds
4:55 PM 90.5 °F 99.2 °F 73.4 °F 57% 29.75 in 10.0 mi ESE 12.7 mph 17.3 mph N/A   Mostly Cloudy
5:15 PM 91.0 °F 100.4 °F 73.9 °F 57% 29.75 in 10.0 mi ESE 12.7 mph 17.3 mph N/A   Scattered Clouds
5:35 PM 88.7 °F 97.2 °F 73.6 °F 61% 29.75 in 10.0 mi ESE 15.0 mph 19.6 mph N/A   Scattered Clouds
5:55 PM 87.8 °F 96.1 °F 73.8 °F 63% 29.76 in 10.0 mi ESE 13.8 mph 20.7 mph N/A   Mostly Cloudy
6:15 PM 86.9 °F 95.0 °F 73.9 °F 65% 29.76 in 10.0 mi East 13.8 mph 17.3 mph N/A   Mostly Cloudy
6:35 PM 85.8 °F 93.8 °F 74.3 °F 68% 29.77 in 10.0 mi East 11.5 mph 16.1 mph N/A   Scattered Clouds
6:55 PM 84.6 °F 92.1 °F 74.3 °F 71% 29.77 in 10.0 mi ESE 16.1 mph - N/A   Scattered Clouds
7:35 PM 83.3 °F 90.5 °F 74.7 °F 75% 29.79 in 10.0 mi ESE 11.5 mph - N/A   Scattered Clouds
7:55 PM 82.4 °F 89.0 °F 74.7 °F 77% 29.79 in 10.0 mi ESE 8.1 mph - N/A   Scattered Clouds
8:15 PM 81.9 °F 88.2 °F 74.8 °F 79% 29.80 in 10.0 mi ESE 9.2 mph - N/A   Clear
8:35 PM 81.5 °F 87.8 °F 75.2 °F 81% 29.80 in 10.0 mi ESE 8.1 mph - N/A   Clear
8:55 PM 81.3 °F 87.6 °F 75.2 °F 82% 29.81 in 10.0 mi SE 11.5 mph 16.1 mph N/A   Clear
9:15 PM 80.8 °F 86.5 °F 75.2 °F 83% 29.81 in 10.0 mi SE 11.5 mph - N/A   Clear
9:35 PM 80.6 °F 86.2 °F 75.4 °F 84% 29.82 in 10.0 mi SE 10.4 mph - N/A   Clear
9:55 PM 80.1 °F 85.2 °F 75.4 °F 86% 29.83 in 10.0 mi SE 10.4 mph - N/A   Clear
10:15 PM 80.1 °F 85.4 °F 75.7 °F 87% 29.83 in 10.0 mi SE 10.4 mph - N/A   Clear
10:35 PM 80.1 °F 85.4 °F 75.7 °F 87% 29.84 in 10.0 mi SE 9.2 mph - N/A   Clear
10:55 PM 79.9 °F - 75.7 °F 87% 29.85 in 10.0 mi ESE 9.2 mph - N/A   Clear
11:15 PM 79.7 °F - 75.7 °F 88% 29.85 in 10.0 mi ESE 9.2 mph - N/A   Clear
11:35 PM 79.7 °F - 76.1 °F 89% 29.84 in 10.0 mi ESE 8.1 mph - N/A   Clear
11:55 PM 79.7 °F - 76.1 °F 89% 29.84 in 10.0 mi ESE 6.9 mph - N/A   Scattered Clouds